This demonstration page uses our WeatherBlox Daily Observations layout. Learn more.

Left ArrowRight Arrow

39.95238, -75.16362

Hourly Observations for May 21, 2015

Temp ( °F °C ) Dew Point ( °F °C ) Humidity (%) Winds ( mph kmh ) Pressure ( in mb ) Visibility ( mi km ) Precip ( " mm )
12:54 am 00:54 Cloudy 59 15 35 1.7 41 41 N 13 20 30.01 1016 10 16 0.00 0.00
1:54 am 01:54 Mostly Cloudy 58 14.4 33 0.6 39 39 N 10 17 30.01 1016 10 16 0.00 0.00
2:54 am 02:54 Cloudy 58 14.4 30 -1.1 35 35 N 14 22 30.01 1016 10 16 0.00 0.00
3:54 am 03:54 Cloudy 57 13.9 27 -2.8 32 32 NE 9 15 30.00 1016 10 16 0.00 0.00
4:54 am 04:54 Cloudy 56 13.3 30 -1.1 37 37 NE 8 13 29.99 1016 10 16 0.00 0.00
5:54 am 05:54 Cloudy 55 12.8 31 -0.6 40 40 NE 6 9 30.02 1017 10 16 0.00 0.00
6:54 am 06:54 Cloudy 56 13.3 32 0 40 40 ENE 7 11 30.01 1016 10 16 0.00 0.00
7:54 am 07:54 Cloudy 56 13.3 36 2.2 47 47 E 7 11 30.01 1016 10 16 0.00 0.00
8:54 am 08:54 Cloudy with Light Rain 56 13.3 38 3.3 51 51 E 6 9 30.01 1016 10 16 0.00 0.03
9:54 am 09:54 Cloudy with Light Rain 57 13.9 40 4.4 53 53 Calm 30.02 1017 10 16 0.00 0.03
10:54 am 10:54 Cloudy with Light Rain 57 13.9 40 4.4 53 53 Calm 30.03 1017 10 16 0.00 0.03
11:54 am 11:54 Cloudy 57 13.9 42 5.6 58 58 SE 5 7 30.02 1017 10 16 0.00 0.03
12:16 pm 12:16 Cloudy with Light Rain 57 13.9 44 6.7 62 62 SSE 3 6 30.03 1017 8 13 0.01 0.25
12:54 pm 12:54 Cloudy with Light Rain 56 13.3 46 7.8 70 70 SSW 5 7 30.01 1016 7 11 0.02 0.51
1:54 pm 13:54 Cloudy with Light Rain 55 12.8 47 8.3 74 74 SW 7 11 29.99 1016 7 11 0.02 0.51
2:19 pm 14:19 Cloudy 54 12.2 48 8.9 80 80 SSW 9 15 30.00 1016 10 16 0.00 0.03
2:31 pm 14:31 Cloudy with Light Rain 53 11.7 47 8.3 80 80 WSW 10 17 30.00 1016 8 13 0.00 0.03
2:54 pm 14:54 Cloudy with Light Rain 52 11.1 44 6.7 75 75 WSW 7 11 29.98 1015 5 8 0.02 0.51
3:09 pm 15:09 Cloudy with Light Rain 52 11.1 45 7.2 77 77 WSW 6 9 29.97 1015 7 11 0.01 0.25
3:33 pm 15:33 Cloudy with Rain 51 10.6 44 6.7 77 77 Calm 29.97 1015 6 10 0.03 0.76
3:54 pm 15:54 Cloudy with Light Rain 51 10.6 46 7.8 83 83 NW 5 7 29.96 1015 6 10 0.06 1.52
4:25 pm 16:25 Cloudy with Light Rain 52 11.1 46 7.8 80 80 WNW 6 9 29.97 1015 4 6 0.01 0.25
4:47 pm 16:47 Cloudy with Light Rain 51 10.6 46 7.8 83 83 N 6 9 29.94 1014 6 10 0.05 1.27
4:54 pm 16:54 Cloudy with Light Rain 51 10.6 46 7.8 83 83 N 6 9 29.95 1014 6 10 0.05 1.27
5:02 pm 17:02 Cloudy with Light Rain 51 10.6 46 7.8 83 83 NNW 3 6 29.94 1014 7 11 0.00 0.03
5:10 pm 17:10 Cloudy with Light Rain 51 10.6 47 8.3 86 86 Calm 29.94 1014 10 16 0.01 0.25
5:37 pm 17:37 Cloudy with Light Rain 52 11.1 45 7.2 77 77 NE 3 6 29.94 1014 10 16 0.01 0.25
5:47 pm 17:47 Cloudy 52 11.1 46 7.8 80 80 Calm 29.94 1014 10 16 0.01 0.25
5:54 pm 17:54 Cloudy 52 11.1 46 7.8 80 80 NE 3 6 29.93 1014 7 11 0.01 0.25
6:30 pm 18:30 Cloudy 51 10.6 47 8.3 86 86 N 3 6 29.94 1014 10 16 0.00 0.00
6:54 pm 18:54 Cloudy 52 11.1 46 7.8 80 80 VRB 3 6 29.93 1014 10 16 0.00 0.00
7:54 pm 19:54 Cloudy 53 11.7 48 8.9 83 83 Calm 29.94 1014 10 16 0.00 0.00
8:54 pm 20:54 Cloudy 53 11.7 48 8.9 83 83 Calm 29.94 1014 10 16 0.00 0.00
9:54 pm 21:54 Cloudy 54 12.2 48 8.9 80 80 Calm 29.93 1014 10 16 0.00 0.00
10:45 pm 22:45 Cloudy 54 12.2 48 8.9 80 80 Calm 29.91 1013 8 13 0.00 0.00
10:54 pm 22:54 Cloudy 54 12.2 49 9.4 83 83 WNW 3 6 29.91 1013 7 11 0.00 0.00
11:22 pm 23:22 Cloudy 54 12 46 8 77 77 NW 5 7 29.91 1013 10 16 0.00 0.00
11:54 pm 23:54 Cloudy 54 12.2 47 8.3 77 77 WNW 5 7 29.92 1013 10 16 0.00 0.00

Powered by AerisWeather